Time,TemperatureF,DewpointF,PressureIn,WindDirection,WindDirectionDegrees,WindSpeedMPH,WindSpeedGustMPH,Humidity,HourlyPrecipIn,Conditions,Clouds,dailyrainin,SolarRadiationWatts/m^2,SoftwareType,DateUTC
2013-04-09 00:22:00,18.0,15.0,-100.00,ENE,57,0.0,0.0,89,0.00,,,0.00,0.000000,,2013-04-09 08:22:00,
2013-04-09 00:32:00,18.0,15.0,-100.00,ENE,57,0.0,0.0,89,0.00,,,0.00,0.000000,,2013-04-09 08:32:00,
2013-04-09 00:42:00,18.0,15.0,-100.00,ENE,57,0.0,0.0,89,0.00,,,0.00,0.000000,,2013-04-09 08:42:00,
2013-04-09 00:52:00,18.0,15.0,-100.00,ENE,57,0.0,0.0,89,0.00,,,0.00,0.000000,,2013-04-09 08:52:00,
2013-04-09 01:22:00,17.0,14.0,-100.00,NNW,345,2.0,5.0,86,0.00,,,0.00,0.000000,,2013-04-09 09:22:00,
2013-04-09 01:32:00,17.0,14.0,-100.00,NNW,345,2.0,5.0,86,0.00,,,0.00,0.000000,,2013-04-09 09:32:00,
2013-04-09 01:43:00,17.0,14.0,-100.00,NNW,345,2.0,5.0,86,0.00,,,0.00,0.000000,,2013-04-09 09:43:00,
2013-04-09 01:52:00,17.0,14.0,-100.00,NNW,345,2.0,5.0,86,0.00,,,0.00,0.000000,,2013-04-09 09:52:00,
2013-04-09 02:00:00,16.0,12.0,-100.00,NW,317,2.0,4.0,85,-99.99,,,-99.99,,,2013-04-09 10:00:00,
2013-04-09 02:23:00,16.0,12.0,-100.00,NW,317,2.0,4.0,85,0.00,,,0.00,0.000000,,2013-04-09 10:23:00,
2013-04-09 02:32:00,16.0,12.0,-100.00,NW,317,2.0,4.0,85,0.00,,,0.00,0.000000,,2013-04-09 10:32:00,
2013-04-09 02:42:00,16.0,12.0,-100.00,NW,317,2.0,4.0,85,0.00,,,0.00,0.000000,,2013-04-09 10:42:00,
2013-04-09 02:52:00,16.0,12.0,-100.00,NW,317,2.0,4.0,85,0.00,,,0.00,0.000000,,2013-04-09 10:52:00,
2013-04-09 03:22:00,15.0,11.0,-100.00,NNE,23,1.0,5.0,85,0.00,,,0.00,0.000000,,2013-04-09 11:22:00,
2013-04-09 03:32:00,15.0,11.0,-100.00,NNE,23,1.0,5.0,85,0.00,,,0.00,0.000000,,2013-04-09 11:32:00,
2013-04-09 03:42:00,15.0,11.0,-100.00,NNE,23,1.0,5.0,85,0.00,,,0.00,0.000000,,2013-04-09 11:42:00,
2013-04-09 03:51:00,15.0,11.0,-100.00,NNE,23,1.0,5.0,85,0.00,,,0.00,0.000000,,2013-04-09 11:51:00,
2013-04-09 04:22:00,14.0,10.0,-100.00,NW,317,1.0,4.0,85,0.00,,,0.00,0.000000,,2013-04-09 12:22:00,
2013-04-09 04:32:00,14.0,10.0,-100.00,NW,317,1.0,4.0,85,0.00,,,0.00,0.000000,,2013-04-09 12:32:00,
2013-04-09 04:42:00,14.0,10.0,-100.00,NW,317,1.0,4.0,85,0.00,,,0.00,0.000000,,2013-04-09 12:42:00,
2013-04-09 04:52:00,14.0,10.0,-100.00,NW,317,1.0,4.0,85,0.00,,,0.00,0.000000,,2013-04-09 12:52:00,
2013-04-09 05:22:00,14.0,11.0,-100.00,West,280,1.0,2.0,86,0.00,,,0.00,0.000000,,2013-04-09 13:22:00,
2013-04-09 05:32:00,14.0,11.0,-100.00,West,280,1.0,2.0,86,0.00,,,0.00,0.000000,,2013-04-09 13:32:00,
2013-04-09 05:42:00,14.0,11.0,-100.00,West,280,1.0,2.0,86,0.00,,,0.00,0.000000,,2013-04-09 13:42:00,
2013-04-09 05:52:00,14.0,11.0,-100.00,West,280,1.0,2.0,86,0.00,,,0.00,0.000000,,2013-04-09 13:52:00,
2013-04-09 06:22:00,12.0,9.0,-100.00,NE,35,1.0,2.0,86,0.00,,,0.00,0.000000,,2013-04-09 14:22:00,
2013-04-09 06:32:00,12.0,9.0,-100.00,NE,35,1.0,2.0,86,0.00,,,0.00,0.000000,,2013-04-09 14:32:00,
2013-04-09 06:42:00,12.0,9.0,-100.00,NE,35,1.0,2.0,86,0.00,,,0.00,0.000000,,2013-04-09 14:42:00,
2013-04-09 06:51:00,12.0,9.0,-100.00,NE,35,1.0,2.0,86,0.00,,,0.00,0.000000,,2013-04-09 14:51:00,
2013-04-09 07:22:00,12.0,9.0,-100.00,NNW,334,1.0,5.0,86,0.00,,,0.00,0.000000,,2013-04-09 15:22:00,
2013-04-09 07:33:00,12.0,9.0,-100.00,NNW,334,1.0,5.0,86,0.00,,,0.00,0.000000,,2013-04-09 15:33:00,
2013-04-09 07:42:00,12.0,9.0,-100.00,NNW,334,1.0,5.0,86,0.00,,,0.00,0.000000,,2013-04-09 15:42:00,
2013-04-09 07:52:00,12.0,9.0,-100.00,NNW,334,1.0,5.0,86,0.00,,,0.00,0.000000,,2013-04-09 15:52:00,
2013-04-09 08:23:00,13.0,9.0,-100.00,NNE,23,1.0,4.0,84,0.00,,,0.00,2.000000,,2013-04-09 16:23:00,
2013-04-09 08:33:00,13.0,9.0,-100.00,NNE,23,1.0,4.0,84,0.00,,,0.00,2.000000,,2013-04-09 16:33:00,
2013-04-09 08:42:00,13.0,9.0,-100.00,NNE,23,1.0,4.0,84,0.00,,,0.00,2.000000,,2013-04-09 16:42:00,
2013-04-09 08:52:00,13.0,9.0,-100.00,NNE,23,1.0,4.0,84,0.00,,,0.00,2.000000,,2013-04-09 16:52:00,
2013-04-09 09:22:00,15.0,10.0,-100.00,North,350,2.0,5.0,80,0.00,,,0.00,6.000000,,2013-04-09 17:22:00,
2013-04-09 09:32:00,15.0,10.0,-100.00,North,350,2.0,5.0,80,0.00,,,0.00,6.000000,,2013-04-09 17:32:00,
2013-04-09 09:42:00,15.0,10.0,-100.00,North,350,2.0,5.0,80,0.00,,,0.00,6.000000,,2013-04-09 17:42:00,
2013-04-09 09:53:00,15.0,10.0,-100.00,North,350,2.0,5.0,80,0.00,,,0.00,6.000000,,2013-04-09 17:53:00,
2013-04-09 10:22:00,19.0,11.0,-100.00,NNE,21,3.0,7.0,72,0.00,,,0.00,25.000000,,2013-04-09 18:22:00,
2013-04-09 10:32:00,19.0,11.0,-100.00,NNE,21,3.0,7.0,72,0.00,,,0.00,25.000000,,2013-04-09 18:32:00,
2013-04-09 10:42:00,19.0,11.0,-100.00,NNE,21,3.0,7.0,72,0.00,,,0.00,25.000000,,2013-04-09 18:42:00,
2013-04-09 10:52:00,19.0,11.0,-100.00,NNE,21,3.0,7.0,72,0.00,,,0.00,25.000000,,2013-04-09 18:52:00,
2013-04-09 11:32:00,21.0,12.0,-100.00,NNE,14,4.0,9.0,67,0.00,,,0.00,43.000000,,2013-04-09 19:32:00,
2013-04-09 11:41:00,21.0,12.0,-100.00,NNE,14,4.0,9.0,67,0.00,,,0.00,43.000000,,2013-04-09 19:41:00,
2013-04-09 11:51:00,21.0,12.0,-100.00,NNE,14,4.0,9.0,67,0.00,,,0.00,43.000000,,2013-04-09 19:51:00,
2013-04-09 12:22:00,25.0,12.0,-100.00,NNE,24,3.0,9.0,57,0.00,,,0.00,63.000000,,2013-04-09 20:22:00,
2013-04-09 12:33:00,25.0,12.0,-100.00,NNE,24,3.0,9.0,57,0.00,,,0.00,63.000000,,2013-04-09 20:33:00,
2013-04-09 12:42:00,25.0,12.0,-100.00,NNE,24,3.0,9.0,57,0.00,,,0.00,63.000000,,2013-04-09 20:42:00,
2013-04-09 12:52:00,25.0,12.0,-100.00,NNE,24,3.0,9.0,57,0.00,,,0.00,63.000000,,2013-04-09 20:52:00,
2013-04-09 14:23:00,28.0,7.0,-100.00,NNW,341,3.0,9.0,41,-99.99,,,0.06,96.000000,,2013-04-09 22:23:00,
2013-04-09 14:33:00,28.0,7.0,-100.00,NNW,341,3.0,9.0,41,-99.99,,,0.06,96.000000,,2013-04-09 22:33:00,
2013-04-09 14:42:00,28.0,7.0,-100.00,NNW,341,3.0,9.0,41,-99.99,,,0.06,96.000000,,2013-04-09 22:42:00,
2013-04-09 14:52:00,28.0,7.0,-100.00,NNW,341,3.0,9.0,41,-99.99,,,0.06,96.000000,,2013-04-09 22:52:00,
2013-04-09 15:12:00,30.0,8.0,-100.00,NW,313,3.0,8.0,38,-99.99,,,-99.99,,,2013-04-09 23:12:00,
2013-04-09 15:22:00,30.0,8.0,-100.00,NW,313,3.0,8.0,38,0.09,,,0.15,116.000000,,2013-04-09 23:22:00,
2013-04-09 15:32:00,30.0,8.0,-100.00,NW,313,3.0,8.0,38,0.09,,,0.15,116.000000,,2013-04-09 23:32:00,
2013-04-09 15:42:00,30.0,8.0,-100.00,NW,313,3.0,8.0,38,0.09,,,0.15,116.000000,,2013-04-09 23:42:00,
2013-04-09 15:52:00,30.0,8.0,-100.00,NW,313,3.0,8.0,38,0.09,,,0.15,116.000000,,2013-04-09 23:52:00,
2013-04-09 16:22:00,30.0,8.0,-100.00,WSW,246,3.0,8.0,38,0.05,,,0.20,161.000000,,2013-04-10 00:22:00,
2013-04-09 16:32:00,30.0,8.0,-100.00,WSW,246,3.0,8.0,38,0.05,,,0.20,161.000000,,2013-04-10 00:32:00,
2013-04-09 16:42:00,30.0,8.0,-100.00,WSW,246,3.0,8.0,38,0.05,,,0.20,161.000000,,2013-04-10 00:42:00,
2013-04-09 16:51:00,30.0,8.0,-100.00,WSW,246,3.0,8.0,38,0.05,,,0.20,161.000000,,2013-04-10 00:51:00,
2013-04-09 17:23:00,29.0,6.0,-100.00,WSW,247,5.0,10.0,37,0.06,,,0.26,170.000000,,2013-04-10 01:23:00,
2013-04-09 17:32:00,29.0,6.0,-100.00,WSW,247,5.0,10.0,37,0.06,,,0.26,170.000000,,2013-04-10 01:32:00,
2013-04-09 17:42:00,29.0,6.0,-100.00,WSW,247,5.0,10.0,37,0.06,,,0.26,170.000000,,2013-04-10 01:42:00,
2013-04-09 17:52:00,29.0,6.0,-100.00,WSW,247,5.0,10.0,37,0.06,,,0.26,170.000000,,2013-04-10 01:52:00,
2013-04-09 18:22:00,27.0,4.0,-100.00,West,259,4.0,8.0,37,0.03,,,0.29,120.000000,,2013-04-10 02:22:00,
2013-04-09 18:32:00,27.0,4.0,-100.00,West,259,4.0,8.0,37,0.03,,,0.29,120.000000,,2013-04-10 02:32:00,
2013-04-09 18:42:00,27.0,4.0,-100.00,West,259,4.0,8.0,37,0.03,,,0.29,120.000000,,2013-04-10 02:42:00,
2013-04-09 18:51:00,27.0,4.0,-100.00,West,259,4.0,8.0,37,0.03,,,0.29,120.000000,,2013-04-10 02:51:00,
2013-04-09 19:22:00,25.0,5.0,-100.00,WSW,250,4.0,7.0,41,0.01,,,0.30,76.000000,,2013-04-10 03:22:00,
2013-04-09 19:32:00,25.0,5.0,-100.00,WSW,250,4.0,7.0,41,0.01,,,0.30,76.000000,,2013-04-10 03:32:00,
2013-04-09 19:43:00,25.0,5.0,-100.00,WSW,250,4.0,7.0,41,0.01,,,0.30,76.000000,,2013-04-10 03:43:00,
2013-04-09 19:52:00,25.0,5.0,-100.00,WSW,250,4.0,7.0,41,0.01,,,0.30,76.000000,,2013-04-10 03:52:00,
2013-04-09 20:23:00,22.0,4.0,-100.00,WSW,255,3.0,9.0,46,0.00,,,0.30,22.000000,,2013-04-10 04:23:00,
2013-04-09 20:33:00,22.0,4.0,-100.00,WSW,255,3.0,9.0,46,0.00,,,0.30,22.000000,,2013-04-10 04:33:00,
2013-04-09 20:42:00,22.0,4.0,-100.00,WSW,255,3.0,9.0,46,0.00,,,0.30,22.000000,,2013-04-10 04:42:00,
2013-04-09 20:52:00,22.0,4.0,-100.00,WSW,255,3.0,9.0,46,0.00,,,0.30,22.000000,,2013-04-10 04:52:00,
2013-04-09 21:22:00,20.0,6.0,-100.00,South,172,3.0,5.0,54,0.00,,,0.30,5.000000,,2013-04-10 05:22:00,
2013-04-09 21:32:00,20.0,6.0,-100.00,South,172,3.0,5.0,54,0.00,,,0.30,5.000000,,2013-04-10 05:32:00,
2013-04-09 21:42:00,20.0,6.0,-100.00,South,172,3.0,5.0,54,0.00,,,0.30,5.000000,,2013-04-10 05:42:00,
2013-04-09 21:52:00,20.0,6.0,-100.00,South,172,3.0,5.0,54,0.00,,,0.30,5.000000,,2013-04-10 05:52:00,
2013-04-09 22:12:00,18.0,7.0,-100.00,SSE,162,1.0,4.0,61,-99.99,,,-99.99,,,2013-04-10 06:12:00,
2013-04-09 22:22:00,18.0,7.0,-100.00,SSE,162,1.0,5.0,61,0.00,,,0.30,0.000000,,2013-04-10 06:22:00,
2013-04-09 22:32:00,18.0,7.0,-100.00,SSE,162,1.0,5.0,61,0.00,,,0.30,0.000000,,2013-04-10 06:32:00,
2013-04-09 22:42:00,18.0,7.0,-100.00,SSE,162,1.0,5.0,61,0.00,,,0.30,0.000000,,2013-04-10 06:42:00,
2013-04-09 22:52:00,18.0,7.0,-100.00,SSE,162,1.0,5.0,61,0.00,,,0.30,0.000000,,2013-04-10 06:52:00,
2013-04-09 23:22:00,16.0,10.0,-100.00,NE,53,0.0,3.0,76,0.00,,,-99.99,0.000000,,2013-04-10 07:22:00,
2013-04-09 23:32:00,16.0,10.0,-100.00,NE,53,0.0,3.0,76,0.00,,,-99.99,0.000000,,2013-04-10 07:32:00,
2013-04-09 23:42:00,16.0,10.0,-100.00,NE,53,0.0,3.0,76,0.00,,,-99.99,0.000000,,2013-04-10 07:42:00,
2013-04-09 23:52:00,16.0,10.0,-100.00,NE,53,0.0,3.0,76,0.00,,,-99.99,0.000000,,2013-04-10 07:52:00,